sat.trackr.live / text

‹ back to catalog

STARLINK-2364

NORAD 47904 · 2021-021AW

PAYLOAD ACTIVE UNKNOWN

§ Identity

Operator
Country
US
Launch date
2021-03-14
Launch site
AFETR
Launch vehicle
Mass (kg)
RCS (m²)

Purposes: comms

External: N2YO · Heavens-Above · Gunter

§ Orbital elements

Epoch: 2026-09-20T04:31:39.887904Z

Period
94.01 min
Inclination
53.1606°
Eccentricity
0.0001189
Mean motion
15.31698228 rev/d
Perigee alt
469.9 km
Apogee alt
471.6 km
Semi-major
6,848.9 km
B*
-5.6922e-5
RAAN
70.0947°
Arg perigee
91.3987°
Mean anomaly
268.7151°
Rev number
30,621

§ Raw data

STARLINK-23641 47904U 21021AW  26263.18865611 -.00002131  00000+0 -56922-4 0  99912 47904  53.1606  70.0947 0001189  91.3987 268.7151 15.31698228306217

JSON: /api/v1/satellites/47904 · /tle

For live sub-satellite position, see the globe view (requires WebGL).

§ Visibility from observer

Set your observer location to see the next 7 days of passes ≥ 10°. The values pass through the URL so the page stays shareable.

No JS? Fill the form by hand. The geolocation button needs JavaScript.